LOCATION_NAME,SAMPLE COLLECTION TIME,DOSE EQUIVALENT RATE (nSv/h),GAMMA COUNT RATE R02 (CPM),GAMMA COUNT RATE R03 (CPM),GAMMA COUNT RATE R04 (CPM),GAMMA COUNT RATE R05 (CPM),GAMMA COUNT RATE R06 (CPM),GAMMA COUNT RATE R07 (CPM),GAMMA COUNT RATE R08 (CPM),GAMMA COUNT RATE R09 (CPM),STATUS
TX: AMARILLO,01/04/2016 18:03:00,,1797.00,1071.00,303.00,162.00,100.00,117.00,81.00,37.00,APPROVED
TX: AMARILLO,01/04/2016 19:03:00,,1689.00,1039.00,302.00,170.00,106.00,125.00,82.00,38.00,APPROVED
TX: AMARILLO,01/04/2016 20:03:00,,1632.00,1014.00,305.00,167.00,104.00,121.00,82.00,39.00,APPROVED
TX: AMARILLO,01/04/2016 21:03:00,,1635.00,1008.00,305.00,166.00,103.00,125.00,80.00,40.00,APPROVED
TX: AMARILLO,01/04/2016 22:04:00,,1657.00,1027.00,306.00,163.00,102.00,122.00,82.00,38.00,APPROVED
TX: AMARILLO,01/04/2016 23:04:00,,1727.00,1063.00,306.00,170.00,105.00,122.00,82.00,40.00,APPROVED
TX: AMARILLO,01/05/2016 00:04:00,,1800.00,1097.00,316.00,172.00,106.00,126.00,82.00,39.00,APPROVED
TX: AMARILLO,01/05/2016 01:04:00,,1887.00,1186.00,332.00,187.00,112.00,131.00,86.00,40.00,APPROVED
TX: AMARILLO,01/05/2016 02:05:00,,1981.00,1244.00,350.00,199.00,115.00,140.00,91.00,40.00,APPROVED
TX: AMARILLO,01/05/2016 03:05:00,,2000.00,1268.00,353.00,203.00,115.00,142.00,89.00,40.00,APPROVED
TX: AMARILLO,01/05/2016 04:05:00,,2018.00,1274.00,356.00,201.00,117.00,140.00,89.00,41.00,APPROVED
TX: AMARILLO,01/05/2016 05:05:00,,2045.00,1287.00,353.00,202.00,115.00,141.00,90.00,42.00,APPROVED
TX: AMARILLO,01/05/2016 06:05:00,,2085.00,1320.00,365.00,212.00,120.00,146.00,93.00,42.00,APPROVED
TX: AMARILLO,01/05/2016 07:06:00,,2109.00,1361.00,375.00,219.00,122.00,150.00,93.00,44.00,APPROVED
TX: AMARILLO,01/05/2016 08:06:00,,2150.00,1412.00,381.00,230.00,128.00,160.00,98.00,44.00,APPROVED
TX: AMARILLO,01/05/2016 09:06:00,,2176.00,1434.00,396.00,236.00,128.00,160.00,98.00,45.00,APPROVED
TX: AMARILLO,01/05/2016 10:06:00,,2184.00,1473.00,395.00,243.00,131.00,165.00,102.00,46.00,APPROVED
TX: AMARILLO,01/05/2016 11:06:00,,2141.00,1441.00,394.00,247.00,130.00,164.00,99.00,47.00,APPROVED
TX: AMARILLO,01/05/2016 12:07:00,,2133.00,1424.00,392.00,237.00,128.00,162.00,101.00,45.00,APPROVED
TX: AMARILLO,01/05/2016 13:07:00,,2117.00,1401.00,392.00,238.00,131.00,161.00,99.00,44.00,APPROVED
TX: AMARILLO,01/05/2016 14:07:00,,2101.00,1377.00,379.00,223.00,125.00,155.00,96.00,44.00,APPROVED
TX: AMARILLO,01/05/2016 15:07:00,,2158.00,1416.00,389.00,231.00,126.00,157.00,98.00,45.00,APPROVED
TX: AMARILLO,01/05/2016 16:07:00,,2161.00,1430.00,391.00,235.00,128.00,157.00,99.00,44.00,APPROVED
TX: AMARILLO,01/05/2016 17:08:00,,2102.00,1368.00,383.00,222.00,126.00,155.00,95.00,45.00,APPROVED
TX: AMARILLO,01/05/2016 18:08:00,,2069.00,1334.00,375.00,212.00,121.00,149.00,94.00,44.00,APPROVED
TX: AMARILLO,01/05/2016 19:08:00,,2251.00,1506.00,421.00,251.00,136.00,168.00,103.00,47.00,APPROVED
TX: AMARILLO,01/05/2016 20:08:00,,2158.00,1435.00,407.00,244.00,130.00,165.00,101.00,47.00,APPROVED
TX: AMARILLO,01/05/2016 21:08:00,,2098.00,1410.00,398.00,245.00,129.00,162.00,101.00,48.00,APPROVED
TX: AMARILLO,01/05/2016 22:09:00,,2111.00,1429.00,398.00,248.00,133.00,165.00,103.00,48.00,APPROVED
TX: AMARILLO,01/05/2016 23:09:00,,2141.00,1477.00,416.00,261.00,138.00,177.00,105.00,49.00,APPROVED
TX: AMARILLO,01/06/2016 00:09:00,,2163.00,1507.00,425.00,276.00,142.00,181.00,109.00,50.00,APPROVED
TX: AMARILLO,01/06/2016 01:09:00,,2208.00,1549.00,435.00,286.00,143.00,187.00,111.00,52.00,APPROVED
TX: AMARILLO,01/06/2016 02:10:00,,2262.00,1625.00,455.00,299.00,152.00,191.00,113.00,55.00,APPROVED
TX: AMARILLO,01/06/2016 03:10:00,,2280.00,1654.00,464.00,307.00,153.00,201.00,120.00,57.00,APPROVED
TX: AMARILLO,01/06/2016 04:10:00,,2293.00,1668.00,469.00,310.00,154.00,203.00,122.00,53.00,APPROVED
TX: AMARILLO,01/06/2016 05:10:00,,2280.00,1658.00,467.00,308.00,152.00,199.00,117.00,55.00,APPROVED
TX: AMARILLO,01/06/2016 06:10:00,,2270.00,1647.00,455.00,302.00,155.00,198.00,117.00,53.00,APPROVED
TX: AMARILLO,01/06/2016 07:11:00,,2211.00,1605.00,449.00,293.00,152.00,191.00,115.00,55.00,APPROVED
TX: AMARILLO,01/06/2016 08:11:00,,2196.00,1568.00,439.00,286.00,145.00,188.00,115.00,53.00,APPROVED
TX: AMARILLO,01/06/2016 09:11:00,,2170.00,1535.00,431.00,281.00,143.00,183.00,110.00,54.00,APPROVED
TX: AMARILLO,01/06/2016 10:11:00,,2132.00,1508.00,423.00,276.00,142.00,179.00,110.00,53.00,APPROVED
TX: AMARILLO,01/06/2016 11:11:00,,2116.00,1481.00,418.00,265.00,139.00,176.00,109.00,52.00,APPROVED
TX: AMARILLO,01/06/2016 12:12:00,,2092.00,1471.00,416.00,265.00,140.00,174.00,109.00,51.00,APPROVED
TX: AMARILLO,01/06/2016 13:12:00,,2122.00,1474.00,417.00,261.00,136.00,175.00,108.00,50.00,APPROVED
TX: AMARILLO,01/06/2016 14:12:00,,2122.00,1495.00,418.00,269.00,138.00,173.00,109.00,52.00,APPROVED
TX: AMARILLO,01/06/2016 15:12:00,,2135.00,1489.00,427.00,265.00,139.00,176.00,109.00,52.00,APPROVED
TX: AMARILLO,01/06/2016 16:12:00,,2117.00,1472.00,415.00,262.00,137.00,173.00,105.00,50.00,APPROVED
TX: AMARILLO,01/06/2016 17:13:00,,2000.00,1403.00,405.00,251.00,133.00,169.00,105.00,48.00,APPROVED
TX: AMARILLO,01/06/2016 18:13:00,,1841.00,1268.00,383.00,221.00,127.00,155.00,99.00,50.00,APPROVED
TX: AMARILLO,01/06/2016 19:13:00,,1732.00,1205.00,368.00,209.00,122.00,151.00,97.00,48.00,APPROVED
TX: AMARILLO,01/06/2016 20:13:00,,1685.00,1158.00,361.00,199.00,120.00,144.00,93.00,48.00,APPROVED
TX: AMARILLO,01/06/2016 21:13:00,,1680.00,1145.00,356.00,198.00,119.00,145.00,94.00,46.00,APPROVED
TX: AMARILLO,01/06/2016 22:14:00,,1716.00,1174.00,367.00,205.00,119.00,147.00,96.00,49.00,APPROVED
TX: AMARILLO,01/06/2016 23:14:00,,1817.00,1257.00,379.00,222.00,127.00,158.00,97.00,48.00,APPROVED
TX: AMARILLO,01/07/2016 00:14:00,,1908.00,1351.00,396.00,243.00,135.00,167.00,105.00,51.00,APPROVED
TX: AMARILLO,01/07/2016 01:14:00,,2009.00,1460.00,425.00,267.00,141.00,181.00,110.00,54.00,APPROVED
TX: AMARILLO,01/07/2016 02:15:00,,2126.00,1604.00,452.00,307.00,156.00,200.00,118.00,59.00,APPROVED
TX: AMARILLO,01/07/2016 03:15:00,,2125.00,1587.00,454.00,304.00,154.00,201.00,118.00,57.00,APPROVED
TX: AMARILLO,01/07/2016 04:15:00,,2141.00,1602.00,457.00,306.00,156.00,203.00,119.00,57.00,APPROVED
TX: AMARILLO,01/07/2016 05:15:00,,2140.00,1615.00,465.00,313.00,157.00,207.00,124.00,58.00,APPROVED
TX: AMARILLO,01/07/2016 06:15:00,,2155.00,1631.00,470.00,319.00,159.00,202.00,123.00,60.00,APPROVED
TX: AMARILLO,01/07/2016 07:16:00,,2178.00,1663.00,474.00,316.00,159.00,206.00,124.00,59.00,APPROVED
TX: AMARILLO,01/07/2016 08:16:00,,2015.00,1480.00,426.00,278.00,143.00,184.00,113.00,55.00,APPROVED
TX: AMARILLO,01/07/2016 09:16:00,,1955.00,1352.00,382.00,233.00,130.00,159.00,98.00,49.00,APPROVED
TX: AMARILLO,01/07/2016 10:16:00,,1960.00,1319.00,376.00,217.00,123.00,151.00,96.00,46.00,APPROVED
TX: AMARILLO,01/07/2016 11:16:00,,1972.00,1282.00,362.00,208.00,117.00,143.00,93.00,43.00,APPROVED
TX: AMARILLO,01/07/2016 12:17:00,,1968.00,1280.00,366.00,204.00,121.00,139.00,93.00,43.00,APPROVED
TX: AMARILLO,01/07/2016 13:17:00,,1953.00,1270.00,363.00,205.00,118.00,140.00,93.00,45.00,APPROVED
TX: AMARILLO,01/07/2016 14:17:00,,1987.00,1287.00,361.00,204.00,119.00,142.00,90.00,44.00,APPROVED
TX: AMARILLO,01/07/2016 15:17:00,,1986.00,1297.00,372.00,205.00,119.00,145.00,92.00,45.00,APPROVED
TX: AMARILLO,01/07/2016 16:17:00,,1951.00,1292.00,373.00,213.00,122.00,148.00,96.00,44.00,APPROVED
TX: AMARILLO,01/07/2016 17:18:00,,1930.00,1317.00,377.00,221.00,126.00,153.00,100.00,46.00,APPROVED
TX: AMARILLO,01/07/2016 18:18:00,,1890.00,1292.00,372.00,221.00,127.00,154.00,98.00,47.00,APPROVED
TX: AMARILLO,01/07/2016 19:18:00,,1899.00,1306.00,392.00,227.00,130.00,161.00,99.00,49.00,APPROVED
TX: AMARILLO,01/07/2016 20:18:00,,1842.00,1293.00,395.00,229.00,129.00,163.00,102.00,51.00,APPROVED
TX: AMARILLO,01/07/2016 21:19:00,,1821.00,1284.00,397.00,234.00,134.00,169.00,103.00,50.00,APPROVED
TX: AMARILLO,01/07/2016 22:19:00,,1817.00,1312.00,403.00,240.00,136.00,170.00,104.00,51.00,APPROVED
TX: AMARILLO,01/07/2016 23:19:00,,1851.00,1319.00,408.00,242.00,133.00,174.00,107.00,52.00,APPROVED
TX: AMARILLO,01/08/2016 00:19:00,,1924.00,1393.00,420.00,258.00,137.00,178.00,110.00,54.00,APPROVED
TX: AMARILLO,01/08/2016 01:19:00,,1976.00,1423.00,419.00,264.00,141.00,183.00,112.00,52.00,APPROVED
TX: AMARILLO,01/08/2016 02:20:00,,2042.00,1484.00,423.00,273.00,141.00,184.00,111.00,54.00,APPROVED
TX: AMARILLO,01/08/2016 03:20:00,,2171.00,1641.00,462.00,309.00,154.00,199.00,117.00,55.00,APPROVED
TX: AMARILLO,01/08/2016 04:20:00,,2313.00,1769.00,488.00,340.00,165.00,214.00,129.00,59.00,APPROVED
TX: AMARILLO,01/08/2016 05:20:00,,2325.00,1812.00,505.00,360.00,169.00,223.00,132.00,62.00,APPROVED
TX: AMARILLO,01/08/2016 06:20:00,,2296.00,1750.00,486.00,339.00,163.00,215.00,128.00,60.00,APPROVED
TX: AMARILLO,01/08/2016 07:21:00,,2368.00,1853.00,520.00,360.00,170.00,228.00,135.00,62.00,APPROVED
TX: AMARILLO,01/08/2016 08:21:00,,2553.00,2131.00,587.00,434.00,193.00,266.00,151.00,68.00,APPROVED
TX: AMARILLO,01/08/2016 09:21:00,,2605.00,2228.00,623.00,460.00,207.00,287.00,163.00,71.00,APPROVED
TX: AMARILLO,01/08/2016 10:21:00,,2625.00,2194.00,611.00,445.00,203.00,277.00,157.00,72.00,APPROVED
TX: AMARILLO,01/08/2016 11:21:00,,2622.00,2144.00,603.00,424.00,192.00,265.00,154.00,70.00,APPROVED
TX: AMARILLO,01/08/2016 12:22:00,,2717.00,2262.00,638.00,444.00,206.00,281.00,163.00,72.00,APPROVED
TX: AMARILLO,01/08/2016 13:22:00,,2695.00,2221.00,627.00,439.00,201.00,276.00,160.00,71.00,APPROVED
TX: AMARILLO,01/08/2016 14:22:00,,2672.00,2161.00,619.00,421.00,194.00,273.00,155.00,69.00,APPROVED
TX: AMARILLO,01/08/2016 15:22:00,,2621.00,2134.00,611.00,419.00,193.00,265.00,157.00,70.00,APPROVED
TX: AMARILLO,01/08/2016 16:22:00,,2480.00,1954.00,564.00,375.00,177.00,240.00,143.00,64.00,APPROVED
TX: AMARILLO,01/08/2016 17:54:00,,2139.00,1358.00,375.00,215.00,124.00,154.00,94.00,45.00,APPROVED
TX: AMARILLO,01/08/2016 18:54:00,,2170.00,1517.00,426.00,267.00,140.00,182.00,109.00,48.00,APPROVED
TX: AMARILLO,01/08/2016 19:55:00,,2252.00,1600.00,454.00,295.00,152.00,195.00,115.00,51.00,APPROVED
TX: AMARILLO,01/08/2016 20:55:00,,2256.00,1625.00,464.00,304.00,154.00,205.00,117.00,52.00,APPROVED
TX: AMARILLO,01/08/2016 21:55:00,,2196.00,1568.00,454.00,289.00,149.00,194.00,114.00,50.00,APPROVED
TX: AMARILLO,01/08/2016 22:55:00,,2119.00,1469.00,422.00,265.00,138.00,180.00,106.00,48.00,APPROVED
TX: AMARILLO,01/08/2016 23:56:00,,2246.00,1556.00,447.00,275.00,147.00,187.00,113.00,50.00,APPROVED
TX: AMARILLO,01/09/2016 00:56:00,,2260.00,1564.00,449.00,275.00,145.00,186.00,110.00,51.00,APPROVED
TX: AMARILLO,01/09/2016 01:56:00,,2170.00,1484.00,426.00,255.00,135.00,178.00,104.00,46.00,APPROVED
TX: AMARILLO,01/09/2016 02:56:00,,2138.00,1446.00,414.00,247.00,136.00,169.00,103.00,49.00,APPROVED
TX: AMARILLO,01/09/2016 03:56:00,,2132.00,1422.00,408.00,244.00,132.00,164.00,101.00,45.00,APPROVED
TX: AMARILLO,01/09/2016 04:57:00,,2248.00,1512.00,425.00,251.00,138.00,173.00,106.00,45.00,APPROVED
TX: AMARILLO,01/09/2016 05:57:00,,2465.00,1741.00,484.00,302.00,153.00,204.00,118.00,51.00,APPROVED
TX: AMARILLO,01/09/2016 06:57:00,,2613.00,1914.00,539.00,350.00,173.00,235.00,132.00,58.00,APPROVED
TX: AMARILLO,01/09/2016 07:57:00,,2507.00,1851.00,522.00,346.00,168.00,231.00,131.00,54.00,APPROVED
TX: AMARILLO,01/09/2016 08:57:00,,2615.00,1881.00,528.00,332.00,167.00,225.00,128.00,53.00,APPROVED
TX: AMARILLO,01/09/2016 09:58:00,,2480.00,1739.00,493.00,305.00,160.00,207.00,120.00,50.00,APPROVED
TX: AMARILLO,01/09/2016 10:58:00,,2381.00,1665.00,470.00,289.00,149.00,195.00,113.00,49.00,APPROVED
TX: AMARILLO,01/09/2016 11:58:00,,2368.00,1646.00,464.00,291.00,151.00,195.00,114.00,49.00,APPROVED
TX: AMARILLO,01/09/2016 12:58:00,,2444.00,1745.00,488.00,307.00,157.00,211.00,122.00,52.00,APPROVED
TX: AMARILLO,01/09/2016 13:58:00,,2607.00,1914.00,533.00,344.00,168.00,233.00,132.00,55.00,APPROVED
TX: AMARILLO,01/09/2016 14:59:00,,2508.00,1831.00,513.00,333.00,167.00,224.00,126.00,54.00,APPROVED
TX: AMARILLO,01/09/2016 15:59:00,,2361.00,1698.00,484.00,306.00,155.00,205.00,120.00,52.00,APPROVED
TX: AMARILLO,01/09/2016 16:59:00,,2272.00,1587.00,453.00,278.00,144.00,191.00,111.00,49.00,APPROVED
TX: AMARILLO,01/09/2016 17:59:00,,2150.00,1461.00,424.00,257.00,135.00,177.00,106.00,46.00,APPROVED
TX: AMARILLO,01/09/2016 19:00:00,,2032.00,1341.00,383.00,224.00,125.00,157.00,98.00,46.00,APPROVED
TX: AMARILLO,01/09/2016 20:00:00,,1990.00,1273.00,374.00,209.00,118.00,147.00,94.00,43.00,APPROVED
TX: AMARILLO,01/09/2016 21:00:00,,1941.00,1294.00,373.00,213.00,122.00,153.00,93.00,43.00,APPROVED
TX: AMARILLO,01/09/2016 22:00:00,,1897.00,1262.00,368.00,208.00,119.00,150.00,93.00,44.00,APPROVED
TX: AMARILLO,01/09/2016 23:00:00,,1931.00,1269.00,371.00,214.00,122.00,152.00,95.00,45.00,APPROVED
TX: AMARILLO,01/10/2016 00:01:00,,1994.00,1317.00,379.00,221.00,128.00,157.00,96.00,44.00,APPROVED
TX: AMARILLO,01/10/2016 01:01:00,,2068.00,1352.00,386.00,229.00,128.00,154.00,100.00,46.00,APPROVED
TX: AMARILLO,01/10/2016 02:01:00,,2093.00,1391.00,391.00,236.00,128.00,159.00,99.00,44.00,APPROVED
TX: AMARILLO,01/10/2016 03:01:00,,2163.00,1434.00,405.00,241.00,130.00,166.00,100.00,47.00,APPROVED
TX: AMARILLO,01/10/2016 04:01:00,,2237.00,1542.00,425.00,266.00,139.00,176.00,107.00,50.00,APPROVED
TX: AMARILLO,01/10/2016 05:02:00,,2261.00,1556.00,438.00,270.00,141.00,182.00,110.00,47.00,APPROVED
TX: AMARILLO,01/10/2016 06:02:00,,2311.00,1637.00,451.00,288.00,145.00,191.00,113.00,50.00,APPROVED
TX: AMARILLO,01/10/2016 07:02:00,,2486.00,1879.00,515.00,345.00,167.00,226.00,131.00,56.00,APPROVED
TX: AMARILLO,01/10/2016 08:02:00,,2497.00,1904.00,531.00,357.00,171.00,231.00,133.00,58.00,APPROVED
TX: AMARILLO,01/10/2016 09:02:00,,2534.00,1952.00,543.00,359.00,173.00,236.00,135.00,61.00,APPROVED
TX: AMARILLO,01/10/2016 10:03:00,,2607.00,2050.00,566.00,384.00,183.00,251.00,144.00,63.00,APPROVED
TX: AMARILLO,01/10/2016 11:03:00,,2607.00,2091.00,583.00,405.00,186.00,261.00,147.00,66.00,APPROVED
TX: AMARILLO,01/10/2016 12:03:00,,2486.00,1930.00,546.00,371.00,177.00,236.00,139.00,63.00,APPROVED
TX: AMARILLO,01/10/2016 13:03:00,,2345.00,1750.00,499.00,324.00,162.00,214.00,125.00,58.00,APPROVED
TX: AMARILLO,01/10/2016 14:04:00,,2305.00,1674.00,475.00,303.00,154.00,197.00,122.00,54.00,APPROVED
TX: AMARILLO,01/10/2016 15:04:00,,2309.00,1679.00,476.00,294.00,152.00,194.00,117.00,56.00,APPROVED
TX: AMARILLO,01/10/2016 16:04:00,,2303.00,1673.00,473.00,296.00,152.00,193.00,116.00,55.00,APPROVED
TX: AMARILLO,01/10/2016 17:04:00,,2314.00,1673.00,473.00,295.00,151.00,196.00,118.00,55.00,APPROVED
TX: AMARILLO,01/10/2016 18:04:00,,2302.00,1675.00,472.00,291.00,150.00,197.00,116.00,53.00,APPROVED
TX: AMARILLO,01/10/2016 19:05:00,,2278.00,1641.00,469.00,286.00,147.00,194.00,114.00,54.00,APPROVED
TX: AMARILLO,01/10/2016 20:05:00,,2210.00,1583.00,452.00,275.00,144.00,186.00,111.00,53.00,APPROVED
TX: AMARILLO,01/10/2016 21:05:00,,2177.00,1530.00,442.00,263.00,141.00,179.00,109.00,51.00,APPROVED
TX: AMARILLO,01/10/2016 22:05:00,,2163.00,1514.00,437.00,263.00,140.00,177.00,109.00,52.00,APPROVED
TX: AMARILLO,01/10/2016 23:05:00,,2139.00,1494.00,425.00,260.00,140.00,175.00,109.00,50.00,APPROVED
TX: AMARILLO,01/11/2016 00:06:00,,2116.00,1473.00,424.00,259.00,137.00,171.00,108.00,52.00,APPROVED
TX: AMARILLO,01/11/2016 01:06:00,,2152.00,1507.00,428.00,258.00,134.00,168.00,108.00,51.00,APPROVED
TX: AMARILLO,01/11/2016 02:06:00,,2213.00,1556.00,441.00,268.00,145.00,182.00,109.00,51.00,APPROVED
TX: AMARILLO,01/11/2016 03:06:00,,2258.00,1633.00,461.00,287.00,149.00,194.00,116.00,54.00,APPROVED
TX: AMARILLO,01/11/2016 04:06:00,,2309.00,1696.00,477.00,308.00,152.00,197.00,122.00,56.00,APPROVED
TX: AMARILLO,01/11/2016 05:07:00,,2323.00,1747.00,491.00,321.00,157.00,211.00,126.00,58.00,APPROVED
TX: AMARILLO,01/11/2016 06:07:00,,2361.00,1815.00,511.00,331.00,165.00,218.00,132.00,60.00,APPROVED
TX: AMARILLO,01/11/2016 07:07:00,,2424.00,1846.00,515.00,343.00,167.00,224.00,131.00,62.00,APPROVED
TX: AMARILLO,01/11/2016 08:07:00,,2441.00,1837.00,524.00,342.00,167.00,218.00,129.00,60.00,APPROVED
TX: AMARILLO,01/11/2016 09:08:00,,2428.00,1802.00,510.00,324.00,160.00,211.00,125.00,57.00,APPROVED
TX: AMARILLO,01/11/2016 10:08:00,,2427.00,1814.00,505.00,327.00,162.00,216.00,126.00,57.00,APPROVED
TX: AMARILLO,01/11/2016 11:08:00,,2441.00,1845.00,509.00,329.00,164.00,217.00,128.00,58.00,APPROVED
TX: AMARILLO,01/11/2016 12:08:00,,2461.00,1846.00,522.00,330.00,165.00,219.00,129.00,57.00,APPROVED
TX: AMARILLO,01/11/2016 13:08:00,,2542.00,1950.00,542.00,353.00,173.00,229.00,134.00,60.00,APPROVED
TX: AMARILLO,01/11/2016 14:09:00,,2582.00,2007.00,566.00,368.00,179.00,243.00,139.00,62.00,APPROVED
TX: AMARILLO,01/11/2016 15:09:00,,2553.00,1994.00,560.00,369.00,179.00,238.00,137.00,60.00,APPROVED
TX: AMARILLO,01/11/2016 16:09:00,,2503.00,1936.00,552.00,359.00,176.00,235.00,135.00,59.00,APPROVED
TX: AMARILLO,01/11/2016 17:09:00,,2314.00,1791.00,524.00,324.00,163.00,222.00,130.00,61.00,APPROVED
TX: AMARILLO,01/11/2016 18:09:00,,2145.00,1670.00,510.00,304.00,161.00,211.00,129.00,63.00,APPROVED
TX: AMARILLO,01/11/2016 19:10:00,,1956.00,1496.00,478.00,272.00,152.00,194.00,120.00,61.00,APPROVED
TX: AMARILLO,01/11/2016 20:10:00,,1791.00,1313.00,428.00,235.00,133.00,171.00,110.00,56.00,APPROVED
TX: AMARILLO,01/11/2016 21:10:00,,1732.00,1243.00,403.00,218.00,127.00,159.00,101.00,52.00,APPROVED
TX: AMARILLO,01/11/2016 22:10:00,,1699.00,1204.00,391.00,209.00,125.00,155.00,100.00,52.00,APPROVED
TX: AMARILLO,01/11/2016 23:10:00,,1704.00,1202.00,383.00,209.00,122.00,153.00,98.00,51.00,APPROVED
TX: AMARILLO,01/12/2016 00:11:00,,1755.00,1226.00,371.00,210.00,121.00,150.00,98.00,50.00,APPROVED
TX: AMARILLO,01/12/2016 01:11:00,,1812.00,1229.00,365.00,208.00,120.00,143.00,96.00,47.00,APPROVED
TX: AMARILLO,01/12/2016 02:11:00,,1903.00,1313.00,374.00,217.00,122.00,149.00,98.00,49.00,APPROVED
TX: AMARILLO,01/12/2016 03:11:00,,2128.00,1534.00,429.00,271.00,141.00,178.00,109.00,50.00,APPROVED
TX: AMARILLO,01/12/2016 04:12:00,,2246.00,1679.00,460.00,303.00,151.00,197.00,117.00,57.00,APPROVED
TX: AMARILLO,01/12/2016 05:12:00,,2285.00,1700.00,472.00,311.00,151.00,200.00,119.00,58.00,APPROVED
TX: AMARILLO,01/12/2016 06:12:00,,2296.00,1726.00,484.00,310.00,159.00,202.00,121.00,57.00,APPROVED
TX: AMARILLO,01/12/2016 07:12:00,,2366.00,1775.00,488.00,321.00,159.00,206.00,122.00,58.00,APPROVED
TX: AMARILLO,01/12/2016 08:12:00,,2427.00,1842.00,513.00,342.00,163.00,218.00,129.00,60.00,APPROVED
TX: AMARILLO,01/12/2016 09:13:00,,2314.00,1681.00,474.00,295.00,148.00,194.00,117.00,54.00,APPROVED
TX: AMARILLO,01/12/2016 10:13:00,,2268.00,1590.00,438.00,267.00,141.00,178.00,111.00,52.00,APPROVED
TX: AMARILLO,01/12/2016 11:13:00,,2235.00,1533.00,428.00,258.00,136.00,171.00,110.00,52.00,APPROVED
TX: AMARILLO,01/12/2016 12:13:00,,2236.00,1532.00,437.00,252.00,137.00,173.00,104.00,50.00,APPROVED
TX: AMARILLO,01/12/2016 13:13:00,,2246.00,1546.00,433.00,253.00,136.00,167.00,105.00,51.00,APPROVED
TX: AMARILLO,01/12/2016 14:14:00,,2260.00,1572.00,435.00,259.00,139.00,172.00,106.00,51.00,APPROVED
TX: AMARILLO,01/12/2016 15:14:00,,2219.00,1551.00,442.00,259.00,137.00,174.00,106.00,52.00,APPROVED
TX: AMARILLO,01/12/2016 16:14:00,,2068.00,1465.00,430.00,250.00,139.00,174.00,106.00,52.00,APPROVED
TX: AMARILLO,01/12/2016 17:14:00,,1918.00,1368.00,415.00,235.00,131.00,166.00,106.00,53.00,APPROVED
TX: AMARILLO,01/12/2016 18:14:00,,1816.00,1309.00,408.00,225.00,132.00,164.00,105.00,52.00,APPROVED
TX: AMARILLO,01/12/2016 19:15:00,,1905.00,1342.00,390.00,238.00,130.00,159.00,103.00,53.00,APPROVED
TX: AMARILLO,01/12/2016 20:15:00,,1879.00,1318.00,374.00,231.00,123.00,152.00,97.00,51.00,APPROVED
TX: AMARILLO,01/12/2016 21:15:00,,1824.00,1260.00,369.00,223.00,122.00,147.00,99.00,49.00,APPROVED
TX: AMARILLO,01/12/2016 22:15:00,,1791.00,1238.00,356.00,216.00,122.00,146.00,96.00,47.00,APPROVED
TX: AMARILLO,01/12/2016 23:15:00,,1804.00,1218.00,355.00,210.00,117.00,143.00,96.00,49.00,APPROVED
TX: AMARILLO,01/13/2016 00:16:00,,1734.00,1186.00,352.00,202.00,117.00,140.00,92.00,47.00,APPROVED
TX: AMARILLO,01/13/2016 01:16:00,,1802.00,1220.00,362.00,209.00,118.00,143.00,94.00,46.00,APPROVED
TX: AMARILLO,01/13/2016 02:16:00,,1874.00,1273.00,370.00,210.00,121.00,147.00,96.00,47.00,APPROVED
TX: AMARILLO,01/13/2016 03:16:00,,1942.00,1350.00,385.00,228.00,126.00,154.00,101.00,51.00,APPROVED
TX: AMARILLO,01/13/2016 04:17:00,,2093.00,1495.00,413.00,259.00,135.00,171.00,107.00,53.00,APPROVED
TX: AMARILLO,01/13/2016 05:17:00,,2158.00,1544.00,433.00,272.00,138.00,177.00,108.00,53.00,APPROVED
TX: AMARILLO,01/13/2016 06:17:00,,2130.00,1491.00,418.00,254.00,135.00,171.00,104.00,52.00,APPROVED
TX: AMARILLO,01/13/2016 07:17:00,,2170.00,1491.00,419.00,252.00,134.00,168.00,104.00,52.00,APPROVED
TX: AMARILLO,01/13/2016 08:17:00,,2161.00,1488.00,413.00,247.00,133.00,163.00,102.00,49.00,APPROVED
TX: AMARILLO,01/13/2016 09:18:00,,2180.00,1464.00,414.00,234.00,129.00,163.00,103.00,48.00,APPROVED
TX: AMARILLO,01/13/2016 10:18:00,,2244.00,1526.00,423.00,246.00,132.00,165.00,104.00,51.00,APPROVED
TX: AMARILLO,01/13/2016 11:18:00,,2279.00,1581.00,435.00,261.00,139.00,175.00,107.00,51.00,APPROVED
TX: AMARILLO,01/13/2016 12:18:00,,2278.00,1587.00,440.00,267.00,139.00,178.00,109.00,50.00,APPROVED
TX: AMARILLO,01/13/2016 13:18:00,,2342.00,1658.00,458.00,281.00,143.00,187.00,113.00,52.00,APPROVED
TX: AMARILLO,01/13/2016 14:19:00,,2435.00,1743.00,479.00,295.00,150.00,198.00,118.00,53.00,APPROVED
TX: AMARILLO,01/13/2016 15:19:00,,2377.00,1704.00,484.00,299.00,152.00,197.00,120.00,54.00,APPROVED
TX: AMARILLO,01/13/2016 16:19:00,,2185.00,1603.00,468.00,280.00,147.00,186.00,115.00,55.00,APPROVED
TX: AMARILLO,01/13/2016 17:19:00,,1980.00,1447.00,443.00,251.00,140.00,178.00,111.00,52.00,APPROVED
TX: AMARILLO,01/13/2016 18:19:00,,1872.00,1354.00,432.00,238.00,137.00,174.00,109.00,55.00,APPROVED
TX: AMARILLO,01/13/2016 19:20:00,,1849.00,1341.00,423.00,237.00,136.00,168.00,106.00,55.00,APPROVED
TX: AMARILLO,01/13/2016 20:20:00,,1971.00,1424.00,407.00,261.00,137.00,173.00,108.00,54.00,APPROVED
TX: AMARILLO,01/13/2016 21:20:00,,1960.00,1397.00,396.00,254.00,137.00,168.00,103.00,54.00,APPROVED
TX: AMARILLO,01/13/2016 22:54:00,,1700.00,1070.00,316.00,177.00,107.00,130.00,82.00,41.00,APPROVED
TX: AMARILLO,01/13/2016 23:54:00,,1686.00,1117.00,336.00,196.00,115.00,140.00,90.00,43.00,APPROVED
TX: AMARILLO,01/14/2016 00:55:00,,1742.00,1176.00,350.00,207.00,123.00,150.00,95.00,46.00,APPROVED
TX: AMARILLO,01/14/2016 01:55:00,,1878.00,1308.00,377.00,236.00,131.00,160.00,100.00,46.00,APPROVED
TX: AMARILLO,01/14/2016 02:55:00,,2105.00,1510.00,417.00,277.00,145.00,183.00,110.00,50.00,APPROVED
TX: AMARILLO,01/14/2016 03:55:00,,2279.00,1703.00,463.00,319.00,160.00,206.00,121.00,58.00,APPROVED
TX: AMARILLO,01/14/2016 04:55:00,,2377.00,1800.00,487.00,350.00,168.00,224.00,129.00,58.00,APPROVED
TX: AMARILLO,01/14/2016 05:56:00,,2393.00,1803.00,490.00,345.00,168.00,221.00,127.00,59.00,APPROVED
TX: AMARILLO,01/14/2016 06:56:00,,2340.00,1752.00,476.00,333.00,161.00,213.00,126.00,58.00,APPROVED
TX: AMARILLO,01/14/2016 07:56:00,,2414.00,1815.00,499.00,344.00,165.00,221.00,130.00,55.00,APPROVED
TX: AMARILLO,01/14/2016 08:56:00,,2498.00,1927.00,527.00,366.00,175.00,235.00,133.00,60.00,APPROVED
TX: AMARILLO,01/14/2016 09:56:00,,2512.00,1954.00,530.00,377.00,178.00,240.00,138.00,62.00,APPROVED
TX: AMARILLO,01/14/2016 10:57:00,,2561.00,1978.00,543.00,385.00,178.00,241.00,139.00,62.00,APPROVED
TX: AMARILLO,01/14/2016 11:57:00,,2452.00,1832.00,503.00,335.00,164.00,218.00,128.00,59.00,APPROVED
TX: AMARILLO,01/14/2016 12:57:00,,2370.00,1694.00,460.00,299.00,153.00,198.00,117.00,55.00,APPROVED
TX: AMARILLO,01/14/2016 13:57:00,,2374.00,1652.00,457.00,287.00,149.00,190.00,112.00,52.00,APPROVED
TX: AMARILLO,01/14/2016 14:57:00,,2371.00,1654.00,456.00,287.00,148.00,186.00,114.00,52.00,APPROVED
TX: AMARILLO,01/14/2016 15:58:00,,2288.00,1617.00,451.00,280.00,145.00,190.00,114.00,53.00,APPROVED